Location: Home
(42.5358°N, 72.7383°W)
Time: 12:12:21
(UTC-05:00)

A-11 Canister half - Pass Details

Date: 30 November 2021
Orbit: 1516 x 1684 km, 47.2° (Epoch: 26 January)

Event Time Altitude Azimuth Distance (km) Brightness Sun altitude
Rises 05:34:08 0° 188° (S) 4,728 11.7 -15.5°
Reaches altitude 10° 05:37:59 10° 175° (S) 3,775 11.3 -14.8°
Maximum altitude 05:45:02 24° 127° (SE) 2,903 11.3 -13.5°
Drops below altitude 10° 05:52:15 10° 80° (E) 3,886 12.1 -12.3°
Sets 05:56:14 0° 67° (ENE) 4,900 12.4 -11.6°
